Presure
208 205 199 199 199 179 178 185 184 189 192 189 185 183 182 171 203 178 194 186 188 187 188 190 192 203 181 183 190 199 203 199 198 192 214 186 186 190 200 207 205 196 190
216 215 188 195 189 184 194 190 190 177 185 174 143 179 174 183 202 212 216 207 216 185 182 189 192 180 197 205 203 204 179 183 183 191 207 208 205 170 214 201 201 191 189
207 192 209 179 193 182 191 182 183 185 166 183 176 178 199 191 202 204 202 208 209 216 219 219 183 193 191 180 199 199 219 203 201 200 195 184 181 183 221 211 212 195 191
196 207 190 191 192 187 177 194 187 186 193 198 188 200 125 179 199 196 199 207 194 196 209 212 220 209 183 210 192 182 206 217 204 183 193 198 214 204 219 209 211 205 197
191 181 178 181 185 188 192 188 181 186 181 199 138 203 178 127 187 174 188 194 193 202 199 211 204 214 216 200 199 201 185 204 215 207 202 204 200 214 205 209 207 205 192
176 185 185 193 192 185 185 185 185 190 121 184 189 141 185 192 195 194 185 193 191 195 192 208 213 211 216 213 207 183 218 188 203 195 199 199 191 206 199 222 206 205 198
185 190 194 190 183 182 186 184 196 198 206 130 198 191 191 187 191 189 192 196 197 197 197 202 205 194 216 225 212 215 225 234 190 196 207 199 195 199 194 190 220 201 203
190 195 192 185 189 190 195 200 136 176 191 193 194 195 195 193 194 176 192 194 196 205 206 199 215 201 206 215 217 223 225 181 226 192 191 211 201 196 190 189 188 209 201
201 198 196 197 198 204 202 195 195 187 208 208 211 220 218 223 219 187 124 125 173 213 214 219 207 216 214 205 211 210 214 216 221 198 195 190 209 200 191 199 188 193 204
193 195 203 208 200 195 201 205 207 217 235 232 218 225 228 244 244 238 236 234 231 215 170 238 236 233 219 227 205 206 206 210 220 222 224 194 191 205 217 195 189 193 189
162 205 200 203 204 213 207 217 218 225 232 231 237 237 245 260 262 273 324 324 294 281 297 269 250 244 241 245 228 218 212 214 188 201 219 232 191 188 195 216 197 187 184
131 197 201 211 206 212 219 220 228 240 255 260 262 266 295 312 307 298 300 320 375 353 322 341 329 315 313 313 296 242 232 224 221 227 186 226 230 188 192 165 213 206 192
205 208 210 211 217 225 237 252 257 261 276 286 305 321 348 348 361 367 364 365 357 343 330 330 305 332 321 301 323 289 392 264 241 231 238 230 231 202 219 194 135 218 196
205 212 216 217 230 255 253 268 272 307 321 350 354 349 356 356 432 434 453 470 467 470 466 349 341 335 331 324 324 269 310 398 353 264 250 245 231 238 206 193 205 194 219
221 232 243 243 255 264 267 293 310 329 366 370 457 450 446 445 443 436 432 432 435 451 428 446 447 465 476 479 473 395 340 325 379 388 372 314 283 256 258 234 225 213 208
242 241 260 262 251 274 318 360 356 451 485 481 447 435 422 415 412 407 404 405 409 420 444 447 424 425 432 444 447 466 480 412 330 312 347 367 351 360 276 259 240 248 211
246 256 266 260 302 352 367 468 451 451 429 482 461 444 426 415 403 398 400 404 403 401 410 418 427 407 407 415 423 431 450 466 470 390 310 300 356 295 348 357 280 250 253
262 276 272 316 373 455 429 432 438 422 443 435 426 418 406 397 391 387 382 377 375 375 383 389 394 402 399 397 403 406 412 449 438 444 479 322 298 344 344 339 321 283 267
257 310 350 380 455 445 428 433 439 414 398 390 382 374 367 363 360 358 357 357 356 355 359 362 365 361 381 394 396 397 405 428 421 426 447 435 313 304 339 343 336 171 290
328 371 442 449 447 439 490 450 403 382 365 356 352 350 353 355 357 358 357 357 355 353 357 360 352 359 360 364 387 391 395 399 416 402 424 432 415 312 298 339 312 334 338
370 471 450 455 463 495 433 394 369 355 349 346 348 350 348 355 361 438 445 430 411 410 417 413 369 356 354 359 376 390 390 390 412 402 405 430 405 397 314 304 286 290 351
462 490 415 489 498 411 383 363 351 346 341 344 338 351 395 433 431 438 455 460 454 451 413 407 413 442 344 353 361 383 387 376 392 409 394 385 456 392 384 325 318 303 271
435 408 396 383 382 375 358 349 346 341 338 350 353 428 418 415 420 431 446 463 462 446 453 444 428 429 431 348 357 376 380 373 383 395 410 419 383 413 418 378 370 340 334
404 391 379 380 364 358 348 342 342 336 348 348 418 412 406 412 418 431 444 458 450 445 449 462 446 440 364 346 356 377 371 368 379 380 391 396 408 379 422 429 410 383 373
382 368 371 361 357 348 340 339 332 327 343 359 401 400 414 425 430 440 453 459 453 483 474 489 457 453 338 349 367 374 361 362 376 368 385 396 398 415 417 397 426 419 432
353 377 367 355 346 336 340 336 324 341 337 403 395 402 405 427 445 458 462 476 449 463 473 468 457 329 350 368 362 354 358 367 371 368 376 373 374 387 394 394 402 413 422
Wind_Speed
72 68 65 62 56 61 64 58 59 56 52 51 53 53 54 55 58 55 56 55 51 49 51 49 45 44 61 62 64 64 65 70 67 68 61 65 67 67 75 78 84 85 85
69 69 70 68 65 64 60 58 57 57 57 58 50 60 61 63 62 56 52 53 54 57 56 58 57 61 51 53 58 66 67 70 71 69 69 63 68 79 82 84 87 86 88
71 75 64 69 65 69 63 63 62 60 60 61 62 63 68 67 66 62 58 56 54 54 52 56 67 64 69 69 58 70 57 75 79 75 72 72 76 75 73 82 86 87 91
79 68 73 74 72 69 69 69 63 64 67 69 64 70 47 61 69 65 64 62 60 59 56 55 56 61 72 66 71 73 61 66 71 78 79 76 74 73 73 78 80 88 91
71 76 77 77 80 80 77 72 70 70 69 77 53 73 66 57 66 68 67 68 67 68 65 66 62 63 63 71 74 76 81 69 72 74 80 76 74 73 75 77 83 87 91
73 77 78 79 78 77 79 76 74 79 53 72 75 64 73 78 78 77 75 75 74 75 73 75 75 72 73 70 74 86 74 83 77 82 81 83 80 77 79 79 83 86 91
81 82 83 80 78 78 81 83 90 88 88 59 82 81 83 85 87 86 86 87 87 85 83 81 80 79 81 82 76 76 73 78 90 85 80 86 85 82 81 79 78 85 89
83 85 84 82 84 85 90 93 63 83 89 92 92 90 88 90 93 84 94 95 95 96 95 88 90 88 88 88 86 86 84 87 86 95 93 85 92 90 91 88 84 85 89
87 89 88 90 93 96 95 95 98 84 103 104 104 104 101 101 101 90 60 60 83 105 105 106 98 99 96 95 95 92 91 90 90 99 101 97 94 98 97 97 92 90 90
90 93 99 102 97 95 100 105 107 110 116 115 111 114 116 118 115 112 113 114 114 105 81 115 112 112 105 107 102 101 100 98 98 96 96 106 102 101 103 102 98 95 93
80 103 102 105 108 112 111 115 116 120 122 121 123 124 128 128 121 121 124 118 116 117 122 123 120 113 114 115 113 111 109 109 96 115 103 100 109 105 105 105 109 103 100
72 107 110 113 113 118 123 123 127 131 133 134 133 134 139 133 125 120 118 109 99 103 105 111 111 108 109 115 118 117 118 118 117 116 102 114 110 97 109 84 110 112 107
111 116 119 120 122 126 132 135 136 136 139 138 139 136 124 122 116 108 108 105 102 101 103 105 105 108 105 104 105 108 109 125 127 125 126 123 118 111 121 111 54 115 113
117 120 120 122 130 134 133 135 135 141 135 127 122 121 118 115 96 94 88 83 83 79 79 103 108 109 108 105 106 103 100 104 114 129 135 132 123 124 123 109 122 111 121
124 126 129 129 133 133 138 144 141 133 118 113 80 78 76 73 69 67 66 66 67 66 58 60 63 64 65 67 76 101 103 99 101 102 106 131 135 131 134 132 127 121 126
127 129 134 134 129 142 138 122 119 83 71 66 71 70 67 64 62 62 61 60 60 60 56 50 52 58 61 61 62 58 59 86 101 101 103 104 111 106 138 135 134 130 128
128 132 134 129 135 123 119 75 75 68 66 49 52 54 56 57 57 57 56 55 54 55 55 46 43 50 56 58 59 57 53 52 52 90 106 106 107 120 112 110 140 135 135
131 138 135 136 118 75 76 73 65 63 51 49 50 51 53 54 54 55 54 53 52 52 52 47 42 44 51 56 57 56 55 46 53 55 56 111 107 109 112 112 123 140 139
129 138 125 112 77 72 69 68 52 51 52 52 53 54 55 57 57 58 58 56 55 54 53 51 47 48 48 51 54 55 52 46 52 56 55 69 113 110 111 112 116 73 143
127 118 81 73 70 68 62 47 50 51 53 56 58 60 60 60 60 60 60 58 58 58 57 54 52 50 52 51 53 54 51 48 51 57 58 69 72 114 114 114 116 120 116
115 68 63 63 61 48 41 45 51 53 56 58 61 61 62 64 66 56 55 58 58 53 50 51 54 51 50 52 51 52 50 46 47 56 60 65 76 83 117 117 115 113 115
66 50 62 50 39 40 44 47 51 54 57 59 60 62 57 49 48 46 45 45 43 46 54 51 49 47 49 51 50 50 48 47 44 48 59 63 65 90 98 120 118 113 111
54 55 53 51 47 43 46 48 50 52 53 56 58 49 47 48 48 45 43 39 38 40 41 45 46 44 45 44 43 44 45 42 39 43 46 54 63 70 90 106 112 119 116
52 50 49 46 47 45 46 48 50 52 54 57 50 48 47 45 45 44 38 32 30 32 35 35 37 39 37 39 37 39 38 35 35 39 41 46 55 61 62 75 97 109 111
51 51 46 45 44 46 47 48 49 52 54 59 47 46 43 41 39 38 33 25 24 24 26 28 29 31 29 28 31 31 31 30 32 36 35 35 42 47 55 60 66 76 83
53 41 40 41 42 46 44 45 48 48 51 42 41 39 35 35 33 30 26 20 17 15 14 16 20 22 23 23 23 24 26 28 31 32 32 30 35 36 38 43 46 50 53
Wind_Direction
297 297 301 300 295 301 303 298 296 295 292 292 292 290 289 283 286 278 273 268 260 252 250 242 237 234 246 246 251 248 249 247 242 241 239 238 234 234 232 233 231 228 230
295 295 299 293 296 298 294 292 290 292 291 292 293 290 287 286 287 283 279 273 270 258 250 245 237 246 238 236 237 244 243 244 243 243 247 240 233 236 232 233 230 230 231
296 296 288 299 295 299 295 294 292 292 289 290 287 287 290 287 289 285 281 280 276 273 265 259 249 237 235 246 241 236 238 243 248 249 242 236 234 236 234 232 231 229 231
294 292 297 299 297 295 294 295 294 294 292 290 287 288 294 287 286 285 285 283 270 269 271 264 266 255 245 241 235 241 237 237 240 244 244 243 240 245 237 231 232 230 230
290 298 301 301 298 297 297 296 293 294 291 292 285 290 277 294 282 271 280 280 279 280 273 274 259 262 256 248 244 235 237 236 236 238 241 240 241 240 239 234 232 231 231
298 296 295 293 293 295 295 295 295 293 295 289 291 289 288 287 284 281 277 276 272 272 267 274 271 264 261 254 249 245 235 239 234 237 237 239 238 241 237 231 232 230 231
296 294 293 293 293 295 295 295 294 293 291 285 287 285 283 284 282 280 276 274 271 268 264 265 264 256 265 264 250 246 242 237 237 234 232 234 237 236 235 233 235 231 232
293 292 292 292 293 295 294 294 293 294 293 290 288 284 279 277 276 275 272 271 270 269 267 259 262 253 258 259 256 255 250 246 234 238 236 230 231 233 233 232 230 233 231
294 293 294 296 296 295 295 296 295 293 289 287 286 283 280 278 274 275 281 281 270 266 264 262 258 256 250 247 250 247 246 242 239 237 236 238 228 230 233 233 230 230 232
298 301 298 298 301 301 300 298 295 294 294 291 291 289 286 283 278 274 272 270 269 267 265 262 257 255 251 250 244 243 242 240 241 236 237 235 237 228 229 232 233 230 228
305 300 304 303 302 299 299 298 299 297 296 294 291 289 287 285 283 281 281 277 270 269 268 263 259 255 253 250 245 240 241 241 247 232 234 235 236 238 232 228 229 232 231
303 304 302 300 302 303 301 300 298 295 294 293 292 291 289 288 286 284 283 278 270 268 267 265 263 260 257 255 253 246 241 239 240 238 248 233 230 244 238 243 227 228 232
303 303 304 304 302 301 300 299 298 297 295 293 293 291 289 287 285 282 280 276 272 270 269 266 262 263 259 253 254 248 250 239 239 239 237 235 231 240 227 238 244 226 230
303 302 302 302 301 301 300 300 299 297 295 293 291 290 289 287 280 280 278 277 275 272 267 264 263 262 260 258 254 245 246 246 243 239 240 239 235 231 239 245 234 238 224
302 302 302 304 304 305 303 301 298 296 296 293 290 288 287 286 284 282 280 278 276 274 266 266 263 262 260 259 256 247 245 241 240 240 240 239 240 236 235 229 229 234 229
307 307 307 307 306 305 300 300 299 300 299 291 291 290 288 287 285 283 282 280 277 276 274 266 259 257 257 257 255 254 252 242 238 233 235 236 237 237 234 233 230 226 235
308 309 309 308 303 303 303 305 303 303 301 299 294 290 288 287 285 283 280 277 276 275 275 270 261 255 255 254 252 252 251 247 242 235 232 233 233 232 234 233 230 230 225
310 308 309 303 308 308 305 307 308 304 310 304 299 297 294 291 289 286 283 280 278 275 273 270 262 254 249 251 250 247 245 241 237 235 231 230 231 232 234 231 231 230 230
313 305 306 309 306 306 304 306 308 310 309 308 304 301 297 293 291 288 286 283 278 273 269 265 259 254 253 247 248 247 246 238 233 233 227 222 228 229 231 232 231 234 229
306 311 307 305 303 303 302 304 307 308 310 308 305 301 297 294 290 286 282 279 274 271 267 261 257 250 248 248 245 245 244 240 231 232 230 218 219 228 229 231 232 230 230
312 305 304 302 301 304 306 307 308 310 310 307 304 302 300 297 293 290 283 275 272 267 262 259 253 248 247 246 245 243 242 239 232 228 230 223 216 218 230 230 228 230 231
308 303 307 302 306 308 309 310 310 312 309 308 306 303 304 306 304 302 295 283 270 258 255 253 250 249 243 242 242 240 240 239 234 230 229 229 227 217 223 231 232 229 230
311 309 312 312 312 313 313 314 313 311 308 308 310 315 318 315 313 311 307 293 274 262 254 247 247 244 237 241 239 238 236 237 237 233 232 232 228 225 226 229 233 235 235
314 315 315 314 314 314 317 317 317 314 316 317 321 324 323 320 316 315 313 299 279 265 257 249 239 240 237 237 234 231 231 235 232 233 228 228 232 229 236 233 233 236 239
318 317 318 317 314 318 322 321 318 319 321 322 326 327 327 328 324 319 318 304 290 270 259 250 231 229 234 232 227 222 226 232 227 229 233 228 233 232 234 237 239 240 240
319 316 317 315 317 319 322 321 320 323 324 328 328 332 338 339 337 329 325 315 301 288 259 229 223 226 216 210 208 215 222 225 219 225 228 222 229 228 230 233 235 236 237